Ballina Observation History
Time Wind Speed Temp Pressure Rel. Hum Rain
19/07:30pm SSE 9-13 kts 17.0°c 1020.4 hPa 66% 0.0mm
19/07:00pm SSE 8-11 kts 17.1°c 1020.4 hPa 67% 0.0mm
19/06:30pm SSE 9-13 kts 16.8°c 1019.9 hPa 68% 0.0mm
19/06:00pm SSE 10-16 kts 16.9°c 1019.5 hPa 69% 0.0mm
19/05:30pm SSE 7-11 kts 16.6°c 1019.3 hPa 70% 0.0mm
19/05:00pm SSE 7-11 kts 17.1°c 1019.2 hPa 70% 0.0mm
19/04:30pm S 9-14 kts 17.7°c 1018.9 hPa 65% 0.0mm
19/04:00pm S 10-14 kts 18.4°c 1018.7 hPa 64% 0.0mm
19/03:30pm S 11-16 kts 18.8°c 1018.4 hPa 62% 0.0mm
19/03:00pm S 12-17 kts 18.9°c 1018.1 hPa 63% 0.0mm
19/02:30pm SSW 13-17 kts 19.4°c 1018.1 hPa 62% 0.0mm
19/02:00pm SSW 11-18 kts 18.5°c 1018.0 hPa 67% 0.0mm
19/01:30pm S 11-16 kts 18.9°c 1017.7 hPa 70% 0.0mm
19/01:00pm S 10-14 kts 18.9°c 1017.8 hPa 68% 0.0mm
19/12:30pm S 13-19 kts 19.1°c 1017.9 hPa 70% 0.0mm
19/12:00pm SW 10-15 kts 19.9°c 1018.2 hPa 70% 0.0mm
19/11:30am SW 9-12 kts 19.2°c 1018.6 hPa 71% 0.0mm
19/11:00am SW 9-13 kts 18.8°c 1018.9 hPa 71% 0.0mm
19/10:30am SW 9-14 kts 17.9°c 1019.3 hPa 73% 0.0mm
19/10:00am SW 8-14 kts 17.4°c 1019.3 hPa 74% 0.0mm
19/09:30am WSW 9-13 kts 17.3°c 1019.1 hPa 75% 0.0mm
19/09:00am WSW 8-10 kts 16.4°c 1019.1 hPa 82% 0.0mm
19/08:30am W 9-11 kts 15.2°c 1018.8 hPa 86% 0.0mm
19/08:00am WSW 7-9 kts 14.2°c 1018.7 hPa 91% 0.0mm
19/07:30am W 2-5 kts 11.8°c 1018.2 hPa 99% 0.0mm
19/07:00am CALM 0 kts 10.0°c 1017.8 hPa 97% 0.0mm
19/06:30am W 2-4 kts 10.4°c 1017.6 hPa 96% 0.0mm
19/06:00am W 4-5 kts 10.3°c 1017.2 hPa 97% 0.0mm
19/05:30am W 4-5 kts 10.1°c 1016.8 hPa 98% 0.0mm
19/05:00am W 5-6 kts 10.1°c 1016.6 hPa 99% 0.0mm
19/04:37am NW 4-5 kts 10.0°c 1016.4 hPa 99% 0.0mm
19/04:30am NW 1-4 kts 9.3°c 1016.3 hPa 98% 0.0mm
19/04:00am CALM 0 kts 10.3°c 1016.3 hPa 99% 0.0mm
19/03:30am CALM 0 kts 9.9°c 1016.1 hPa 98% 0.0mm
19/03:00am CALM 0 kts 10.7°c 1016.4 hPa 99% 0.0mm
19/02:30am CALM 0 kts 10.6°c 1016.5 hPa 99% 0.0mm
19/02:00am CALM 0 kts 10.3°c 1016.5 hPa 98% 0.0mm
19/01:52am CALM 0 kts 10.7°c 1016.6 hPa 98% 0.0mm
19/01:34am W 4-5 kts 11.3°c 1016.6 hPa 98% 0.0mm
19/01:30am W 4-5 kts 11.0°c 1016.6 hPa 98% 0.0mm
19/01:00am CALM 0 kts 11.1°c 1016.8 hPa 97% 0.0mm
19/12:30am CALM 0 kts 11.6°c 1016.7 hPa 98% 0.0mm
19/12:22am CALM 0 kts 11.9°c 1016.7 hPa 99% 0.0mm
19/12:00am CALM 0 kts 12.2°c 1016.9 hPa 99% 0.0mm
Time Wind Speed Temp Pressure Rel. Hum Rain
18/11:30pm CALM 0 kts 11.8°c 1017.1 hPa 99% 0.0mm
18/11:00pm CALM 0 kts 12.2°c 1017.2 hPa 99% 0.0mm
18/10:46pm CALM 0 kts 11.9°c 1017.3 hPa 98% 0.0mm
18/10:30pm CALM 0 kts 11.8°c 1017.2 hPa 98% 0.0mm
18/10:21pm CALM 0 kts 12.2°c 1017.2 hPa 99% 0.0mm
18/10:14pm CALM 0 kts 12.2°c 1017.2 hPa 98% 0.0mm
18/10:00pm CALM 0 kts 11.7°c 1017.2 hPa 97% 0.0mm
18/09:52pm CALM 0 kts 12.0°c 1017.1 hPa 97% 0.0mm
18/09:30pm CALM 0 kts 12.8°c 1017.2 hPa 98% 0.0mm
18/09:00pm CALM 0 kts 12.5°c 1017.3 hPa 96% 0.0mm
18/08:31pm CALM 0 kts 12.7°c 1017.2 hPa 97% 0.0mm
18/08:30pm CALM 0 kts 12.7°c 1017.2 hPa 97% 0.0mm
18/08:06pm CALM 0 kts 12.9°c 1017.2 hPa 97% 0.0mm
18/08:00pm CALM 0 kts 13.1°c 1017.2 hPa 97% 0.0mm
18/07:30pm CALM 0 kts 13.4°c 1017.1 hPa 96% 0.0mm
18/07:00pm W 2-3 kts 13.5°c 1016.9 hPa 97% 0.0mm
18/06:30pm W 2-3 kts 13.8°c 1016.8 hPa 95% 0.0mm
18/06:00pm CALM 0 kts 13.8°c 1016.6 hPa 89% 0.0mm
18/05:30pm W 4 kts 15.3°c 1016.2 hPa 89% 0.0mm
18/05:00pm WSW 4-6 kts 16.8°c 1015.9 hPa 83% 0.0mm
18/04:30pm WSW 7-9 kts 18.0°c 1015.7 hPa 77% 0.0mm
18/04:00pm SW 7-10 kts 18.9°c 1015.7 hPa 73% 0.0mm
18/03:30pm SW 7-10 kts 19.4°c 1015.8 hPa 69% 0.0mm
18/03:00pm SSW 8-13 kts 18.5°c 1015.9 hPa 73% 0.0mm
18/02:30pm W 9-13 kts 19.2°c 1016.0 hPa 71% 0.0mm
18/02:00pm W 9-12 kts 18.9°c 1015.9 hPa 69% 0.0mm
18/01:30pm W 9-13 kts 19.1°c 1016.1 hPa 69% 0.0mm
18/01:00pm WNW 9-11 kts 17.9°c 1016.2 hPa 76% 0.0mm
18/12:53pm W 9-11 kts 17.5°c 1016.3 hPa 77% 0.0mm
18/12:37pm SW 8-11 kts 17.0°c 1016.6 hPa 81% 0.0mm
18/12:30pm SW 8-11 kts 17.7°c 1016.7 hPa 71% 0.0mm
18/12:00pm W 9-11 kts 18.1°c 1016.9 hPa 69% 0.0mm
18/11:30am W 10-13 kts 17.9°c 1017.2 hPa 67% 0.0mm
18/11:00am W 10-13 kts 18.1°c 1017.5 hPa 65% 0.0mm
18/10:30am WSW 10-15 kts 18.1°c 1017.7 hPa 65% 0.0mm
18/10:00am WSW 11-15 kts 18.3°c 1017.7 hPa 65% 0.0mm
18/09:30am WSW 8-11 kts 17.7°c 1018.0 hPa 65% 0.0mm
18/09:00am W 8-11 kts 16.4°c 1017.9 hPa 72% 0.0mm
18/08:30am W 8-11 kts 14.7°c 1017.9 hPa 72% 0.0mm
18/08:00am WNW 7-10 kts 13.9°c 1018.1 hPa 73% 0.0mm
18/07:30am WNW 7-9 kts 13.2°c 1017.7 hPa 76% 0.0mm
18/07:00am W 5 kts 12.1°c 1017.4 hPa 84% 0.0mm
18/06:30am WNW 5-6 kts 11.8°c 1017.2 hPa 84% 0.0mm
18/06:00am W 6-7 kts 10.8°c 1016.8 hPa 82% 0.0mm
18/05:30am W 5-6 kts 10.1°c 1016.3 hPa 88% 0.0mm
18/05:00am WSW 6-8 kts 11.2°c 1016.2 hPa 82% 0.0mm
18/04:30am W 7-9 kts 10.0°c 1016.1 hPa 86% 0.0mm
18/04:00am WNW 5-7 kts 8.7°c 1016.2 hPa 96% 0.0mm
18/03:30am CALM 0-3 kts 8.2°c 1016.4 hPa 95% 0.0mm
18/03:00am CALM 0 kts 8.5°c 1016.3 hPa 95% 0.0mm
18/02:30am CALM 0 kts 9.2°c 1016.6 hPa 96% 0.0mm
18/02:00am WNW 1-3 kts 8.7°c 1016.6 hPa 95% 0.0mm
18/01:30am CALM 0 kts 9.4°c 1016.7 hPa 96% 0.0mm
18/01:00am CALM 0 kts 9.3°c 1016.7 hPa 94% 0.0mm
18/12:30am NW 3-4 kts 10.3°c 1016.7 hPa 96% 0.0mm
18/12:00am NW 3 kts 10.0°c 1016.9 hPa 96% 0.0mm
Time Wind Speed Temp Pressure Rel. Hum Rain
17/11:30pm NW 3-4 kts 10.3°c 1017.0 hPa 97% 0.0mm
17/11:00pm NW 2-4 kts 10.2°c 1017.0 hPa 97% 0.0mm
17/10:30pm CALM 0-3 kts 10.5°c 1017.2 hPa 97% 0.0mm
17/10:00pm NW 1-3 kts 10.3°c 1017.1 hPa 96% 0.0mm
17/09:30pm CALM 0 kts 10.8°c 1017.3 hPa 98% 0.0mm
17/09:00pm CALM 0 kts 12.3°c 1017.2 hPa 99% 0.0mm
17/08:30pm CALM 0 kts 11.5°c 1017.1 hPa 100% 0.0mm
17/08:00pm CALM 0 kts 11.7°c 1016.9 hPa 100% 0.0mm
17/07:30pm CALM 0 kts 11.7°c 1016.7 hPa 95% 0.0mm
17/07:00pm CALM 0-1 kts 12.4°c 1016.5 hPa 96% 0.0mm
17/06:30pm CALM 0 kts 12.5°c 1016.2 hPa 91% 0.0mm
17/06:00pm CALM 0 kts 13.6°c 1016.0 hPa 90% 0.0mm
17/05:30pm WSW 1-3 kts 14.6°c 1015.7 hPa 83% 0.0mm
17/05:00pm SW 5-9 kts 17.3°c 1015.4 hPa 73% 0.0mm
17/04:30pm SSW 5-7 kts 18.1°c 1015.2 hPa 61% 0.0mm
17/04:00pm S 8-10 kts 18.5°c 1015.1 hPa 59% 0.0mm
17/03:30pm S 9-12 kts 19.0°c 1014.9 hPa 58% 0.0mm
17/03:00pm S 9-12 kts 19.2°c 1014.9 hPa 55% 0.0mm
17/02:30pm S 11-14 kts 19.3°c 1014.7 hPa 59% 0.0mm
17/02:00pm S 10-15 kts 19.4°c 1014.8 hPa 58% 0.0mm
17/01:30pm S 10-13 kts 19.5°c 1015.0 hPa 59% 0.0mm
17/01:00pm SW 9-12 kts 19.7°c 1015.1 hPa 57% 0.0mm
17/12:30pm SW 9-15 kts 19.3°c 1015.5 hPa 57% 0.0mm
17/12:00pm SW 10-14 kts 18.8°c 1015.8 hPa 58% 0.0mm
17/11:30am WSW 11-15 kts 18.7°c 1016.2 hPa 64% 0.0mm
17/11:00am WSW 12-17 kts 17.9°c 1016.7 hPa 59% 0.0mm
17/10:30am WSW 14-19 kts 17.8°c 1017.0 hPa 52% 0.0mm
17/10:00am WSW 13-17 kts 17.5°c 1016.8 hPa 55% 0.0mm
17/09:30am W 13-17 kts 17.0°c 1016.7 hPa 62% 0.0mm
17/09:00am W 10-15 kts 16.4°c 1016.9 hPa 63% 10.8mm
17/08:30am W 11-17 kts 15.9°c 1016.7 hPa 71% 10.8mm
17/08:00am W 11-13 kts 15.3°c 1016.3 hPa 76% 10.8mm
17/07:30am W 11-13 kts 14.8°c 1016.1 hPa 80% 10.8mm
17/07:00am W 7-9 kts 13.2°c 1015.8 hPa 89% 10.8mm
17/06:30am W 8-10 kts 13.7°c 1015.8 hPa 91% 10.8mm
17/06:00am WNW 9-11 kts 14.5°c 1015.5 hPa 90% 10.8mm
17/05:30am WNW 5-6 kts 14.4°c 1015.4 hPa 93% 10.8mm
17/05:00am WSW 6-7 kts 15.0°c 1015.0 hPa 94% 10.8mm
17/04:30am SW 4-5 kts 15.5°c 1015.0 hPa 96% 10.8mm
17/04:00am SW 3-7 kts 15.3°c 1014.6 hPa 98% 10.6mm
17/03:30am CALM 0 kts 15.2°c 1014.7 hPa 98% 10.6mm
17/03:00am SW 4-5 kts 15.4°c 1014.8 hPa 98% 10.6mm
17/02:30am W 4-5 kts 15.3°c 1015.1 hPa 98% 10.6mm
17/02:00am WSW 5-7 kts 15.3°c 1015.1 hPa 98% 10.6mm
17/01:30am WSW 4 kts 15.2°c 1015.2 hPa 98% 10.6mm
17/01:00am W 4-5 kts 15.0°c 1015.5 hPa 97% 10.6mm
17/12:49am NW 1-4 kts 15.0°c 1015.6 hPa 96% 10.6mm
17/12:30am CALM 0 kts 15.0°c 1015.6 hPa 96% 10.6mm
17/12:00am NNW 1-4 kts 16.0°c 1015.8 hPa 97% 10.6mm